Location: Newark
(40.9833°N, 0.0333°W)
Time: 00:02:09
(UTC+00:00)

Altair - Pass Details

Date: 30 October 2020
Orbit: 1502 x 1682 km, 47.2° (Epoch: 03 December)

Event Time Altitude Azimuth Distance (km) Brightness Sun altitude
Rises 07:05:47 0° 273° (W) 4,670 9.4 5.6°
Reaches altitude 10° 07:08:52 10° 277° (W) 3,706 8.9 6.2°
Maximum altitude 07:18:08 60° 357° (N) 1,762 7.8 7.8°
Drops below altitude 10° 07:27:47 10° 77° (ENE) 3,847 10.5 9.4°
Sets 07:31:03 0° 81° (E) 4,856 11.0 9.9°
